Weather History for Clarksburg, WV

Change the Weather History Date:

Tuesday, January 29, 2013

  Actual Average Record
Temperature  
Mean Temperature 58 °F -  
Max Temperature 66 °F 38 °F 66 °F (2013)
Min Temperature 51 °F 20 °F -20 °F (1963)
Degree Days  
Heating Degree Days 6    
Growing Degree Days 8 (Base 50)    
Moisture  
Dew Point 50 °F    
Average Humidity 80    
Maximum Humidity 100    
Minimum Humidity 56    
Precipitation  
Precipitation 0.08 in - - ()
Sea Level Pressure  
Sea Level Pressure 30.02 in    
Wind  
Wind Speed 7 mph (SSW)    
Max Wind Speed 13 mph    
Max Gust Speed -    
Visibility 8 miles    
Events Rain    
Averages and records for this station are not official NWS values.
T = Trace of Precipitation, MM = Missing Value Source: NWS Daily Summary

Daily Weather History Graph

Daily Weather History Graph

Search for Another Location

Airport:

Trip Planner

Search our weather history database for the weather conditions in past years. The results will help you decide how hot, cold, wet, or windy it might be!

Date:

Astronomy

Jan. 29, 2013 Rise Set
Actual Time 7:30 AM EST 5:38 PM EST
Civil Twilight 7:01 AM EST 6:06 PM EST
Nautical Twilight 6:29 AM EST 6:39 PM EST
Astronomical Twilight 5:58 AM EST 7:10 PM EST
Moon 8:31 PM EST (1/29) 8:27 AM EST (1/29)
Length of Visible Light 11h 04m
Length of Day
10h 07m
Waning Gibbous, 94% of the Moon is Illuminated
Jan 29
Waning Gibbous
Feb 3
Last Quarter
Feb 10
New
Feb 17
First Quarter
Feb 25
Full

Hourly Weather History & Observations

Time (EST) Temp. Dew Point Humidity Pressure Visibility Wind Dir Wind Speed Gust Speed Precip Events Conditions
12:34 AM 51.8 °F 50.0 °F 94% 30.09 in 2.5 mi WSW 8.1 mph - 0.01 in Rain Light Rain
12:46 AM 51.8 °F 50.0 °F 94% 30.09 in 3.0 mi SW 8.1 mph - 0.01 in   Overcast
12:53 AM 52.0 °F 51.1 °F 97% 30.08 in 4.0 mi SW 6.9 mph - 0.01 in   Overcast
1:53 AM 52.0 °F 51.1 °F 97% 30.08 in 3.0 mi SW 6.9 mph - N/A   Overcast
2:51 AM 51.8 °F 51.8 °F 100% 30.09 in 2.0 mi SW 6.9 mph - 0.01 in Rain Rain
2:53 AM 52.0 °F 51.1 °F 97% 30.08 in 2.0 mi SW 5.8 mph - 0.02 in Rain Light Rain
3:49 AM 51.8 °F 50.0 °F 94% 30.08 in 4.0 mi SSW 5.8 mph - 0.04 in Rain Light Rain
3:53 AM 51.1 °F 50.0 °F 96% 30.07 in 5.0 mi SW 5.8 mph - 0.04 in Rain Light Rain
4:53 AM 51.1 °F 50.0 °F 96% 30.08 in 8.0 mi SSW 4.6 mph - 0.01 in   Overcast
5:53 AM 51.1 °F 50.0 °F 96% 30.07 in 8.0 mi SSW 4.6 mph - N/A   Overcast
6:53 AM 52.0 °F 51.1 °F 97% 30.06 in 8.0 mi South 3.5 mph - N/A   Overcast
7:25 AM 51.8 °F 50.0 °F 94% 30.08 in 9.0 mi South 3.5 mph - N/A   Overcast
7:37 AM 53.6 °F 51.8 °F 94% 30.08 in 9.0 mi South 4.6 mph - N/A   Overcast
7:49 AM 53.6 °F 50.0 °F 88% 30.09 in 9.0 mi South 3.5 mph - N/A   Overcast
7:53 AM 53.1 °F 50.0 °F 89% 30.08 in 8.0 mi South 3.5 mph - N/A   Overcast
8:16 AM 53.6 °F 50.0 °F 88% 30.09 in 8.0 mi Calm Calm - N/A   Overcast
8:53 AM 54.0 °F 51.1 °F 90% 30.08 in 10.0 mi SSW 3.5 mph - N/A   Overcast
9:53 AM 55.9 °F 51.1 °F 84% 30.07 in 10.0 mi SW 6.9 mph - N/A   Overcast
10:53 AM 61.0 °F 52.0 °F 72% 30.06 in 10.0 mi SW 11.5 mph - N/A   Partly Cloudy
11:53 AM 62.1 °F 52.0 °F 70% 30.04 in 10.0 mi SW 11.5 mph - N/A   Partly Cloudy
12:53 PM 64.0 °F 53.1 °F 67% 30.01 in 10.0 mi SSW 11.5 mph - N/A   Mostly Cloudy
1:53 PM 64.9 °F 52.0 °F 63% 29.98 in 10.0 mi SW 11.5 mph - N/A   Partly Cloudy
2:53 PM 66.9 °F 51.1 °F 57% 29.97 in 10.0 mi SSW 12.7 mph - N/A   Mostly Cloudy
3:53 PM 66.9 °F 51.1 °F 57% 29.94 in 10.0 mi South 9.2 mph - N/A   Clear
4:53 PM 66.0 °F 50.0 °F 56% 29.92 in 10.0 mi South 9.2 mph - N/A   Clear
5:53 PM 64.0 °F 50.0 °F 60% 29.91 in 10.0 mi South 4.6 mph - N/A   Clear
6:53 PM 62.1 °F 48.9 °F 62% 29.90 in 10.0 mi South 3.5 mph - N/A   Clear
7:53 PM 55.0 °F 48.9 °F 80% 29.91 in 10.0 mi Calm Calm - N/A   Clear
8:53 PM 60.1 °F 48.9 °F 67% 29.89 in 10.0 mi South 6.9 mph - N/A   Clear
9:53 PM 61.0 °F 48.0 °F 62% 29.87 in 10.0 mi SSE 6.9 mph - N/A   Clear
10:53 PM 62.1 °F 46.9 °F 58% 29.84 in 10.0 mi South 6.9 mph - N/A   Clear
11:53 PM 61.0 °F 46.0 °F 58% 29.81 in 10.0 mi SSE 6.9 mph - N/A   Clear